RH
25 26 26 26 26 27 27 25 22 20 20 20 20 20 20 21 21 19 18 18 17 18 17 15 15 15 14 15 15 13 15 24 29 33 41 48 51 51 51 49 48 51 52 50 53 55 56 59 61 60 62 68 70 74 74 65 66 69 63 63 66 65 65 69 69 70 70 66 62 61 62 61 60 55 51 47 46 45 42 39 35 30 29 28 28 28
26 27 26 24 25 26 26 26 25 23 22 20 20 19 20 22 21 18 19 20 21 21 18 17 18 17 16 18 18 16 19 29 32 33 40 45 47 49 50 50 51 54 55 54 55 55 55 56 58 59 62 64 63 67 72 68 66 64 58 59 62 63 66 68 69 69 68 66 64 63 62 60 57 52 48 46 45 44 39 35 32 30 29 29 28 29
27 27 25 24 25 26 26 27 27 26 24 23 22 22 23 23 21 20 21 24 28 26 20 19 20 18 17 18 20 18 19 30 34 32 38 42 45 50 51 51 52 55 58 56 55 54 54 55 56 58 62 62 56 54 56 58 59 57 57 60 60 62 67 70 71 68 67 68 66 62 60 57 54 52 50 47 45 44 38 34 32 32 31 30 29 29
29 27 24 24 25 26 25 25 26 27 26 26 26 26 25 23 22 24 25 27 30 27 21 20 21 19 18 17 19 19 20 30 36 34 38 43 48 52 53 52 54 58 59 57 55 55 55 57 57 58 63 64 57 49 49 52 54 54 58 61 61 62 66 70 69 67 68 70 65 61 58 56 55 54 52 48 47 47 43 38 36 35 33 32 31 30
28 26 23 25 28 29 28 26 26 27 27 28 29 27 24 24 25 28 31 31 30 27 23 22 21 21 22 20 20 22 23 32 37 38 40 45 51 55 55 57 60 60 58 56 56 58 60 61 58 57 60 62 57 50 50 53 53 54 57 60 60 61 65 69 67 65 66 65 60 58 57 55 55 54 52 51 51 50 48 41 39 39 38 37 34 32
27 28 26 26 30 31 32 28 25 26 27 27 29 27 26 29 31 32 34 34 31 29 27 24 21 24 28 24 21 23 26 33 40 41 43 48 54 57 58 60 61 60 58 56 58 61 61 60 58 56 56 58 58 55 54 55 55 56 58 61 60 59 63 68 67 64 61 57 55 55 55 53 53 54 54 52 50 48 46 43 43 44 42 40 37 35
25 28 28 29 31 30 32 28 23 26 28 27 28 28 29 33 35 36 35 33 32 32 30 28 26 27 29 27 25 25 26 33 41 43 47 51 54 57 58 59 59 59 59 58 60 62 60 60 64 64 61 61 64 65 62 61 59 58 60 62 58 56 59 64 65 62 56 52 53 55 53 51 52 55 54 50 46 45 45 46 49 49 44 42 40 38
25 28 28 29 30 29 30 27 25 28 29 30 29 27 30 36 37 37 35 31 34 35 33 33 31 29 29 29 30 28 26 32 39 44 52 54 53 55 56 57 57 56 55 57 60 61 60 63 67 71 72 70 69 70 68 66 64 61 62 61 59 57 56 58 60 56 51 50 53 55 54 53 55 56 52 49 49 50 49 49 49 47 44 43 40 36
27 28 26 27 28 28 29 27 28 29 29 31 30 25 27 35 37 35 34 32 34 36 36 38 34 31 36 37 33 28 27 33 38 42 49 53 53 56 56 55 55 53 53 57 61 61 61 61 62 65 71 71 68 67 68 69 68 66 64 62 63 62 55 54 56 52 49 51 53 54 56 58 62 58 51 52 55 55 54 52 47 44 43 43 38 36
27 26 24 25 26 27 27 27 29 31 31 31 29 24 24 31 36 33 33 33 34 34 37 43 39 34 41 43 37 31 29 35 43 46 49 53 56 58 57 56 57 58 58 60 63 64 61 61 61 63 65 65 64 64 65 68 69 68 66 65 66 62 54 54 55 50 52 56 57 59 61 65 66 58 53 55 56 54 53 50 45 44 44 43 40 39
25 25 25 25 25 27 27 28 30 29 30 28 26 23 22 29 36 36 36 36 38 41 41 44 43 37 42 46 40 36 35 40 50 53 54 57 59 61 60 60 60 62 63 64 67 66 62 60 61 62 63 62 62 61 61 63 65 66 67 66 65 59 54 55 54 53 60 65 65 66 69 69 65 57 54 56 56 54 51 47 46 47 46 43 41 42
25 25 26 26 25 26 26 28 30 27 24 23 22 21 23 33 41 42 41 35 39 49 47 44 43 39 42 45 43 41 41 47 52 53 55 59 60 61 61 62 64 66 67 68 69 67 64 61 58 59 60 60 59 58 57 59 62 64 65 64 62 59 56 55 56 62 69 71 68 70 71 66 60 56 54 54 54 53 50 49 52 51 47 45 45 45
28 26 27 27 26 26 27 29 30 26 23 20 22 22 24 34 42 48 49 42 42 46 43 41 40 39 44 45 45 45 43 46 50 50 54 56 56 59 62 66 69 69 68 68 67 64 61 59 56 55 56 55 56 56 57 59 62 63 64 63 61 61 58 57 63 69 71 70 69 69 66 60 58 59 56 52 51 51 50 52 55 54 48 45 47 49
30 29 28 27 26 27 29 31 32 30 26 22 22 23 26 34 42 51 54 47 41 38 38 41 38 39 50 52 48 48 47 48 49 51 57 59 60 63 66 69 70 68 67 66 64 61 58 58 58 54 51 52 54 57 58 60 62 62 63 63 63 61 58 60 66 69 69 70 68 65 60 56 57 58 55 52 52 53 54 56 56 54 49 47 50 54
33 35 32 28 27 28 29 30 31 32 30 26 24 23 25 33 39 44 48 44 40 39 39 39 37 42 58 60 51 48 50 50 50 55 63 68 70 70 71 70 69 67 66 66 64 59 56 59 60 54 49 50 53 57 59 59 62 63 62 63 62 60 59 61 63 63 66 69 66 63 62 60 60 58 55 54 55 56 58 59 58 56 53 50 52 55
32 36 36 31 29 28 29 28 26 28 32 30 27 25 25 29 33 36 42 44 42 42 40 40 45 54 62 62 54 51 54 57 59 62 66 70 73 75 75 73 71 69 66 63 60 56 52 54 58 53 49 52 54 57 60 59 62 65 65 64 62 62 64 64 64 63 61 62 63 67 70 68 68 63 58 57 57 57 62 64 62 61 58 53 50 50
31 34 35 33 32 29 29 32 28 27 36 38 31 28 29 32 34 36 43 44 42 43 47 51 57 59 58 60 58 55 59 66 70 71 70 71 72 74 76 74 74 74 69 60 52 51 51 52 55 53 51 55 57 59 62 61 60 63 63 61 60 63 65 66 66 63 59 58 65 72 73 71 70 64 58 59 58 59 66 69 66 65 63 59 53 47
34 34 35 35 35 34 32 33 33 29 33 38 36 35 35 35 36 41 48 52 49 51 56 59 62 60 61 68 68 63 65 70 74 74 73 73 73 73 74 74 74 74 71 63 56 54 55 58 59 57 56 60 63 63 65 64 61 60 60 60 60 61 62 62 63 61 59 64 71 74 73 71 69 64 61 62 63 65 70 69 67 68 69 66 58 48
38 36 40 37 35 41 38 35 39 36 30 33 39 39 37 38 40 40 44 50 54 57 57 60 67 68 67 73 75 71 69 71 75 77 78 78 76 76 76 74 73 72 69 67 65 62 63 67 67 65 66 68 68 68 70 69 66 64 65 64 62 62 61 62 61 59 59 67 72 73 73 73 70 67 66 65 65 71 74 69 67 70 73 72 63 53
38 37 43 42 39 43 46 43 43 43 36 34 40 41 40 46 48 42 41 46 55 63 61 59 68 74 72 72 74 71 67 69 74 77 78 79 78 77 77 76 74 73 71 72 73 72 73 75 74 72 74 76 73 72 74 75 73 72 71 69 68 67 65 64 63 60 63 69 70 71 76 78 73 68 69 67 68 75 75 69 68 72 75 73 65 55
41 38 42 47 43 42 51 52 45 41 38 35 40 43 41 44 45 43 44 45 50 62 67 63 65 74 77 75 71 69 67 67 70 73 77 79 78 77 76 75 73 72 72 74 74 73 75 77 77 76 78 80 77 75 75 76 76 76 75 74 75 73 68 66 64 64 70 76 75 75 78 78 73 69 71 73 75 78 76 70 70 74 77 73 65 55
46 45 45 48 46 45 53 55 48 44 41 38 40 41 41 43 44 45 50 48 47 56 62 63 68 77 82 79 74 72 74 76 74 73 78 80 77 76 74 72 71 71 70 72 72 71 74 77 77 77 79 81 80 78 77 75 75 74 73 74 77 74 69 67 67 69 73 74 76 79 79 78 75 74 77 81 81 78 75 72 73 78 78 73 65 55
51 50 46 44 46 50 52 51 50 48 44 43 44 43 43 48 49 50 54 51 47 49 51 57 72 81 81 81 80 76 77 84 82 74 77 80 75 74 75 72 73 74 74 76 75 73 75 78 78 77 77 78 79 78 76 75 75 73 71 73 75 73 70 70 73 77 75 69 70 76 77 77 75 74 79 83 81 78 73 71 74 78 75 69 63 53
55 53 48 47 52 57 55 50 51 50 47 47 50 50 49 50 49 50 56 53 47 47 49 55 70 81 81 82 83 79 77 85 87 79 77 79 74 72 74 73 73 75 77 79 77 75 77 81 82 81 79 79 79 79 78 77 75 71 69 71 74 74 73 74 76 80 79 74 75 79 78 75 72 75 82 83 81 78 74 73 76 74 67 65 62 51
62 62 57 55 58 59 58 55 54 54 54 53 54 53 52 52 50 49 52 54 51 49 48 54 69 81 83 82 83 81 80 85 90 86 82 81 76 72 72 71 71 73 75 78 77 77 80 82 84 85 84 83 82 81 81 79 75 72 70 73 78 78 77 78 77 80 82 81 83 87 85 81 79 83 86 85 83 80 78 80 79 72 64 65 63 53
70 70 63 63 66 63 62 63 61 59 59 60 59 56 53 54 55 50 49 54 54 51 51 58 73 82 83 83 84 82 80 82 87 89 86 80 76 74 74 72 71 72 75 77 78 79 83 85 83 82 81 81 80 80 80 77 76 75 75 80 85 84 83 85 83 84 88 88 88 91 90 87 87 87 87 88 86 81 80 81 78 70 65 64 62 56
75 75 69 68 67 64 64 64 61 61 64 66 65 62 59 58 57 55 55 56 53 55 62 68 73 79 83 84 82 80 79 80 85 89 86 78 74 74 76 74 72 74 76 78 79 81 84 85 80 77 77 77 75 75 75 75 75 76 78 82 85 84 85 85 85 86 89 90 91 92 91 91 89 87 87 89 86 83 80 77 71 68 65 63 62 59
77 78 75 71 65 61 62 60 57 59 63 65 66 66 66 65 63 62 63 62 57 58 69 76 72 72 80 83 79 79 82 83 85 86 82 76 74 74 76 76 75 76 78 79 81 83 84 84 83 81 79 77 75 74 73 73 72 73 75 78 80 80 78 78 81 84 83 82 83 82 85 90 90 86 87 86 85 85 81 73 68 66 63 64 65 65
79 80 78 76 72 67 65 63 62 61 61 64 69 71 71 70 69 69 68 68 64 61 70 80 77 73 78 82 81 82 84 85 83 80 77 75 75 75 77 78 77 78 79 80 85 88 86 85 84 80 76 74 72 71 70 69 68 68 70 72 74 75 73 73 78 79 75 72 73 73 78 85 86 86 87 84 81 82 78 72 68 64 62 65 68 67
79 82 82 80 79 74 71 70 68 65 64 67 70 72 73 73 73 72 71 69 68 68 73 81 81 79 80 82 83 85 86 84 79 75 74 74 74 74 74 73 73 76 78 79 83 87 83 81 78 72 69 69 68 67 67 66 66 69 74 75 74 73 72 73 75 74 70 67 67 70 77 80 79 80 81 77 73 72 71 70 69 65 64 68 71 70
76 81 84 83 83 81 79 77 74 72 71 71 71 73 74 75 74 73 72 71 72 75 80 84 83 83 82 80 80 82 84 82 79 76 74 73 72 72 69 69 72 75 74 72 73 74 73 72 70 66 65 65 64 64 64 63 66 71 75 74 71 70 70 72 74 73 71 68 66 70 76 77 76 75 74 71 68 66 66 68 69 68 67 69 72 73
81 83 83 84 87 86 83 82 81 77 74 74 77 78 77 76 75 74 75 75 76 79 83 86 86 84 83 79 77 78 80 81 81 79 75 73 72 71 69 70 73 71 67 64 65 65 64 63 63 62 63 64 63 63 62 62 65 69 70 68 67 65 65 70 72 70 67 68 70 71 71 72 75 76 71 68 69 69 69 70 70 71 71 69 69 69
83 85 84 85 89 90 87 86 84 80 80 83 83 79 77 77 75 74 75 74 77 79 83 87 86 84 83 79 75 77 80 83 84 81 79 77 76 75 74 73 71 68 64 63 62 62 60 59 59 60 62 64 63 62 64 66 65 64 64 64 64 62 62 65 67 63 61 66 71 70 67 68 72 75 72 70 71 74 75 74 74 73 70 65 60 58
76 78 82 83 86 88 87 85 83 85 91 92 85 77 75 75 74 73 73 73 75 78 81 84 86 87 87 85 82 82 83 84 86 84 83 82 79 77 76 75 73 71 69 69 67 64 62 61 59 60 63 65 64 64 66 68 64 61 60 60 59 59 60 61 61 59 59 63 66 66 66 67 67 67 67 66 68 70 72 73 73 73 71 66 60 54
71 73 80 83 82 82 83 83 87 92 94 91 84 77 74 74 74 73 73 75 77 79 81 82 84 88 91 91 91 91 90 88 87 88 87 84 82 80 80 81 81 77 75 74 72 71 70 66 64 64 65 68 70 69 69 68 64 62 62 61 59 60 61 61 60 58 58 60 61 62 64 66 66 64 63 64 65 66 66 65 64 64 66 66 64 61
70 71 75 79 78 77 79 84 90 93 91 88 86 81 76 76 76 74 74 76 77 78 82 84 85 89 91 93 93 94 93 91 90 92 91 87 86 86 84 84 84 83 82 80 78 78 78 75 74 75 75 76 78 75 74 74 72 71 71 69 66 65 65 65 65 64 62 60 60 60 61 64 67 68 69 69 70 71 69 65 60 59 62 68 73 76
70 69 70 72 73 75 78 84 90 91 89 88 84 81 78 77 78 78 77 78 76 73 74 77 80 83 85 89 93 94 92 92 94 96 94 90 89 89 87 87 87 88 89 88 86 87 87 85 85 85 83 83 82 81 81 82 80 78 77 75 72 70 69 68 70 72 72 70 68 66 65 66 67 69 71 72 72 73 73 70 67 65 66 71 77 78
67 66 68 70 74 79 80 84 88 88 88 88 84 81 80 78 80 81 81 81 79 74 72 72 73 75 76 82 88 89 89 92 97 98 96 91 90 90 89 88 87 87 87 86 85 85 86 86 85 84 82 82 82 81 81 81 80 79 78 77 76 75 73 71 72 74 76 79 78 75 73 72 70 69 69 69 69 69 70 71 71 71 70 69 68 66
68 68 69 71 77 80 80 83 86 86 88 90 87 83 82 82 84 85 84 84 81 76 76 78 77 77 78 82 84 85 86 90 93 93 92 89 87 86 86 84 84 85 84 81 78 77 77 79 80 80 79 79 78 78 77 77 77 77 78 78 78 78 75 73 72 74 75 78 79 76 74 74 72 70 69 69 70 71 71 72 73 73 74 71 67 63
69 70 72 74 78 79 79 83 86 86 86 87 84 81 80 81 83 85 85 84 78 74 77 80 80 80 81 82 84 84 85 86 86 86 87 85 83 83 83 84 85 85 84 81 79 76 75 76 79 80 78 76 75 75 75 76 77 77 76 76 77 79 78 76 74 74 75 76 77 77 76 75 75 75 74 74 74 74 74 74 74 74 75 74 72 70
72 72 75 78 79 79 80 84 89 89 85 83 82 80 78 79 82 84 85 82 77 75 76 77 79 81 80 80 82 83 84 84 83 84 84 84 83 83 83 84 85 86 86 85 82 78 75 75 77 79 77 75 75 75 77 77 78 77 75 72 72 74 76 76 75 75 75 76 78 79 79 79 79 79 79 78 78 77 77 76 75 74 74 74 73 72
74 75 79 82 83 83 82 84 91 92 86 82 81 77 74 79 84 82 81 80 78 77 76 77 80 82 80 80 81 81 82 82 82 84 86 86 87 86 84 84 85 87 87 86 84 82 80 77 76 76 75 75 74 74 74 73 74 74 74 73 74 75 75 76 76 75 75 75 76 76 76 77 76 75 74 73 73 72 73 73 73 73 73 72 71 70
73 77 81 82 82 84 85 87 93 94 87 82 82 79 77 81 82 79 79 80 80 79 78 77 79 80 80 80 82 83 84 82 81 81 82 83 85 86 86 85 85 86 87 86 86 86 84 81 79 78 77 77 76 74 73 71 71 73 75 76 77 78 77 76 75 74 73 72 71 71 70 69 68 67 65 64 63 63 63 63 64 64 65 65 64 64
72 77 82 82 81 83 88 90 92 91 86 81 82 83 83 82 79 76 77 77 78 78 78 77 78 80 81 81 82 82 82 81 80 80 79 80 81 83 84 85 85 86 86 87 88 88 86 84 83 82 81 80 78 76 74 72 72 72 73 75 75 75 73 72 70 70 69 67 66 65 64 64 64 63 62 62 61 60 60 58 57 57 57 57 57 58
72 74 77 81 82 83 87 89 87 85 83 80 80 80 80 78 77 76 77 76 75 76 77 79 81 82 82 82 81 80 79 79 79 78 78 78 78 78 79 79 79 81 82 84 86 86 84 84 83 82 82 81 80 78 76 74 72 71 71 72 71 69 67 66 65 64 63 62 61 60 59 59 58 58 57 57 57 56 56 55 53 52 50 49 48 48
63 63 65 69 72 75 79 81 81 81 81 80 79 79 78 79 79 80 80 79 79 79 80 82 83 83 83 82 80 78 77 76 76 77 77 78 79 79 78 76 75 76 79 82 83 83 82 81 81 81 80 80 80 79 77 75 73 70 69 68 66 64 63 61 60 59 58 58 59 58 57 55 54 53 52 51 50 50 50 49 48 47 46 45 43 42
51 52 54 57 59 64 69 71 72 74 75 74 74 74 75 77 80 82 84 85 85 85 84 85 85 84 83 83 82 80 79 77 76 78 80 81 82 82 80 79 78 78 79 80 80 80 79 78 77 78 78 78 78 78 76 73 70 68 67 66 65 63 61 58 56 55 54 54 54 54 52 50 48 47 46 45 44 43 42 42 42 41 41 40 39 39
47 45 50 56 56 58 63 64 64 64 65 67 68 68 68 71 73 76 79 82 83 85 86 86 86 84 83 83 82 81 79 78 78 80 83 85 84 82 81 80 79 79 78 78 79 79 78 78 78 77 75 75 75 73 69 66 63 62 62 60 58 55 52 51 49 47 47 47 46 45 43 41 40 39 37 37 37 36 35 35 34 34 34 34 34 34
49 50 53 56 55 55 57 57 58 57 57 60 63 64 64 66 66 67 70 73 75 77 79 81 83 84 84 83 80 77 76 77 77 80 84 86 84 83 82 81 80 78 76 77 77 76 73 73 73 71 70 69 67 64 61 58 56 56 54 52 49 46 45 45 44 43 42 41 40 38 37 36 36 35 35 34 34 34 34 34 33 33 32 31 32 31
51 54 54 53 54 56 56 55 57 59 59 58 58 58 60 61 61 62 63 65 67 68 69 70 73 75 77 77 75 73 74 76 78 80 83 84 83 82 81 79 77 77 76 75 74 70 66 65 64 63 62 61 60 60 59 57 55 54 51 49 47 45 44 44 42 40 39 38 37 37 37 36 36 36 36 35 34 33 31 31 31 31 31 30 30 30
44 48 52 55 57 57 54 53 55 58 59 59 57 56 57 59 60 61 61 61 62 62 62 62 63 64 66 67 66 65 68 73 77 79 80 80 79 77 74 70 70 72 73 72 70 66 62 61 60 59 58 57 57 59 59 57 56 54 52 49 47 45 44 44 42 40 39 39 39 39 38 38 37 36 35 34 33 31 29 28 28 28 28 29 29 28